Location: Gro� Glienicke
(52.4675°N, 13.1079°E)
Time: 19:20:29
(UTC+00:00)

Cosmos 304 Rocket - Pass Details

Date: 06 July 2020
Orbit: 679 x 688 km, 74.0° (Epoch: 11 August)

Event Time Altitude Azimuth Distance (km) Brightness Sun altitude
Rises 23:25:22 0° 331° (NNW) 3,070 8.2 -14.9°
Reaches altitude 10° 23:27:44 10° 326° (NNW) 2,150 7.1 -14.9°
Maximum altitude 23:32:25 51° 252° (WSW) 873 4.1 -14.9°
Enters shadow 23:35:02 24° 188° (S) 1,405 4.7 -14.8°
